x

Buoy I01 - Eastern Maine Shelf (44034) Wave Buoy

1:04 - Fri 9th Dec 2016 All times are EST. -5 hours from GMT.

  • Sig Wave height 4.6ft
  • Peak Period 6s
  • Wind
    25mph, 31mph gusts
  • Sea Temp 50°f
  • Air Temp 39°f
  • Sea Pressure 1004mb
  • Buoy I01 - Eastern Maine Shelf
  • Buoy I01 - Eastern Maine Shelf

More Historic Weather Station data

Upgrade to MSW Pro to gain access to the past 30 days of data for over 8000 Wavebouys and Weather Stations around the globe.

Join Pro

Comparision Forecast

View Surf forecast
   
ven. 12/09 1:04 4.5ft 6s 25 31 mph 1004mb 50f 39f
12:04 4.5ft 5s 22 29 mph 1004.3mb 50f 39f
jeu. 12/08 11:04 4.5ft 5s 20 25 mph 1004.5mb 50f 40f
10:04 4.5ft 6s 22 27 mph 1004.7mb 50f 40f
9:04 4.5ft 6s 22 27 mph 1004.6mb 50f 40f
8:04 3.5ft 5s 25 31 mph 1004.7mb 50f 42f
7:04 3ft 5s 20 22 mph 1004.7mb 50f 42f
6:04 3.5ft 5s 20 25 mph 1004.7mb 50f 42f
5:04 3ft 5s 22 27 mph 1004.4mb 50f 43f
4:04 2.5ft 5s 13 18 mph 1004.8mb 50f 43f
3:04 3.5ft 11s 13 16 mph 1005.4mb 50f 42f
2:04 2.5ft 11s 13 20 mph 1006.1mb 50f 42f
1:04 2.5ft 11s 4 9 mph 1006.7mb 50f 42f
12:04 2.5ft 11s 2 4 mph 1007.8mb 50f 42f
11:04 2.5ft 11s 4 7 mph 1009.2mb 50f 43f
10:04 2.5ft 11s 2 4 mph 1010.5mb 50f 42f
9:04 2ft 8s 4
mph
1010.7mb 50f 43f
8:04 2ft 8s 4 7 mph 1011mb 50f 41f
7:04 2ft 11s 4 7 mph 1011.3mb 50f 40f
6:04 2ft 8s 9 11 mph 1011.5mb 50f 40f
5:04 1.3ft 3s 11 13 mph 1011.5mb 50f 41f
4:04 1.3ft 4s 9 11 mph 1011.6mb 50f 41f
3:04 1.6ft 8s 11 13 mph 1012.1mb 50f 42f
2:04 1.3ft 3s 9 11 mph 1012.5mb 50f 42f
1:04 1.3ft 3s 9 11 mph 1012.6mb 50f 42f
12:04 1.3ft 3s 13 16 mph 1013.2mb 50f 43f
mer. 12/07 11:04 1.3ft 3s 13 18 mph 1013.6mb 50f 43f
10:04 1.3ft 3s 11 13 mph 1013.6mb 50f 44f
9:04 1ft 2s 11 16 mph 1014.1mb 50f 44f
8:04 2ft 8s 11 13 mph 1014.3mb 50f 43f
7:04 1.6ft 8s 9 13 mph 1014.2mb 50f 41f
6:04 1.3ft 11s 7 9 mph 1014.6mb 50f 40f
5:04 1.6ft 11s 7 9 mph 1014.5mb 50f 40f
4:04 1.6ft 11s 9 11 mph 1013.8mb 49f 39f
3:04 2ft 11s 9 11 mph 1013.7mb 49f 38f
2:04 2.5ft 11s 2 4 mph 1014.1mb 50f 36f
1:04 1ft 4s 7 9 mph 1014.3mb 50f 36f
12:04  -   -  4
mph
1014.9mb 50f 36f
11:04 2.5ft 11s 4 9 mph 1015.2mb 50f 36f
10:04 1.3ft 4s 7 11 mph 1016.2mb 50f 35f
9:04 1.6ft 4s 4 9 mph 1016.4mb 50f 35f
8:04 1.6ft 4s 9 16 mph 1015.2mb 50f 34f
7:04 1.3ft 4s 9 13 mph 1015.7mb 50f 34f
6:04 1.6ft 3s 13 18 mph 1014.8mb 50f 33f
5:04 1.3ft 4s 11 16 mph 1015.2mb 50f 33f
4:04 1.3ft 3s 11 13 mph 1015.7mb 50f 33f
3:04 1.3ft 3s 11 13 mph 1016.1mb 50f 32f
2:04 1.3ft 3s 11 13 mph 1016.4mb 50f 32f
1:04 1ft 3s 9 13 mph 1016.1mb 50f 33f
12:04 1.3ft 3s 9 13 mph 1016.4mb 50f 33f
mar. 12/06 11:04 1.3ft 4s 9 11 mph 1017.4mb 50f 33f
10:04 1.3ft 4s 9 13 mph 1017.5mb 50f 33f
7:04 1.3ft 3s 11 16 mph 1017.5mb 50f 33f
6:04 1.3ft 3s 9 13 mph 1018mb 50f 33f
5:04 1.3ft 3s 9 13 mph 1018mb 50f 32f
4:04 1.6ft 3s 11 16 mph 1017.8mb 50f 33f
3:04 1.6ft 4s 11 16 mph 1017.3mb 50f 33f
2:04 2ft 4s 11 16 mph 1017.5mb 50f 33f
1:04 2ft 4s 11 16 mph 1018mb 50f 32f
12:04 2.5ft 4s 13 22 mph 1017.8mb 50f 32f
11:04 2.5ft 4s 16 20 mph 1018.1mb 50f 32f
10:04 3ft 4s 18 22 mph 1018.7mb 50f 32f
9:04 3ft 4s 22 27 mph 1018.3mb 50f 33f
8:04 2.5ft 4s 22 27 mph 1018.1mb 50f 32f
7:04 2.5ft 4s 18 22 mph 1017.6mb 50f 33f
6:04 3ft 3s 22 27 mph 1016.3mb 50f 34f
5:04 3ft 4s 20 25 mph 1015.5mb 50f 34f
4:04 3ft 3s 18 20 mph 1014.8mb 51f 35f
3:04 3.5ft 4s 20 25 mph 1014.2mb 51f 35f
2:04 3.5ft 4s 22 27 mph 1013mb 51f 36f
1:04 3.5ft 4s 25 29 mph 1011.8mb 51f 35f
12:04 3ft 5s 25 27 mph 1010.5mb 51f 36f
lun. 12/05 11:04 3.5ft 5s 13 18 mph 1009.8mb 51f 42f
10:04 2.5ft 4s 16 18 mph 1010.5mb 51f 40f
9:04 2.5ft 4s 18 20 mph 1010.4mb 51f 41f
8:04 2.5ft 4s 18 20 mph 1011mb 51f 40f
7:04 1.6ft 3s 18 22 mph 1011.9mb 51f 39f
6:04 1.3ft 3s 16 18 mph 1012.9mb 51f 38f
5:04 1ft 3s 13 18 mph 1013.3mb 50f 37f
4:04 1ft 2s 11 13 mph 1013.7mb 50f 36f
3:04 1.3ft 8s 13 16 mph 1013.4mb 50f 37f
2:04 1.3ft 8s 9 11 mph 1014.3mb 50f 35f
1:04 1.3ft 8s 7 9 mph 1015mb 50f 34f
12:04 1.6ft 11s 7 13 mph 1016.2mb 50f 33f
11:04 1.3ft 8s 2
mph
1017.6mb 50f 32f
10:04 1.3ft 8s 4 7 mph 1018.4mb 50f 31f
9:04 1.6ft 4s 9 13 mph 1018.6mb 50f 31f
8:04 1.3ft 3s 7 9 mph 1019.7mb 50f 31f